Weather Roundup
Issued by NWS

Home | Current Version | Previous Version | Graphics & Text | Print | Product List | Glossary Off
Versions: 1 2 3 4 5 6 7 8 9 10 11 12 13 14 15 16 17 18 19 20 21 22 23 24 25 26 27 28 29 30 31 32 33 34 35 36 37 38 39 40 41 42 43 44 45 46 47 48 49 50

000
NZUS93 KARX 080159
HRRWXR

CURRENT HOURLY OBSERVATIONS ACROSS
MUCH OF THE UPPER MISSISSIPPI VALLEY
NATIONAL WEATHER SERVICE LA CROSSE WI
900 PM CDT TUE JUL 07 2015


...SOUTHEAST MINNESOTA...


CITY           SKY/WX    TMP DP  RH WIND       PRES   REMARKS
ROCHESTER      CLEAR     62  49  62 E3        30.12S
ROCHESTER/MAYO FAIR      65  48  55 CALM      30.11S
WINONA         CLEAR     63  52  67 CALM      30.10S
AUSTIN         CLEAR     63  52  67 CALM      30.11S
ALBERT LEA     PTCLDY    63  52  67 NE3       30.12R
DODGE CENTER   CLEAR     61  54  77 CALM      30.12S
PRESTON        CLEAR     62  49  62 SE3       30.12S
OWATONNA       CLEAR     63  50  63 CALM      30.11F
FARIBAULT      NOT AVBL
$$

...ELSEWHERE IN MINNESOTA...


CITY           SKY/WX    TMP DP  RH WIND       PRES   REMARKS
MINNEAPOLIS    MOCLDY    67  46  47 NE7       30.10S
INTNL FALLS    CLEAR     64  49  57 SW5       30.04S
DULUTH         CLEAR     64  48  56 SW3       30.09S
RED WING       CLEAR     61  54  77 N5        30.09S
REDWOOD FALLS  PTCLDY    63  50  62 SE5       30.10F
MANKATO        PTCLDY    64  48  55 E5        30.11S
WORTHINGTON    PTCLDY    59  50  72 E6        30.12S
FAIRMONT       PTCLDY    61  48  63 NE5       30.11F
$$

...SOUTHWEST WISCONSIN...


CITY           SKY/WX    TMP DP  RH WIND       PRES   REMARKS
LA CROSSE      CLOUDY    64  52  64 CALM      30.08S
PRAIRIE DU CHI CLOUDY    64  51  63 CALM      30.09S
BOSCOBEL       CLOUDY    62  56  80 CALM      30.10S
LONE ROCK      NOT AVBL
PLATTEVILLE    CLEAR     60  54  80 N5        30.10S
FORT MC COY    PTCLDY    61  52  71 CALM      30.10S
VIROQUA        CLOUDY    63  52  67 CALM      30.10S
WIS DELLS      CLOUDY    65  49  56 CALM      30.08F
$$

...ELSEWHERE IN WISCONSIN...


CITY           SKY/WX    TMP DP  RH WIND       PRES   REMARKS
MILWAUKEE      PTCLDY    57  46  66 N8        30.09F
MADISON        MOCLDY    64  52  64 CALM      30.08S
GREEN BAY      CLEAR     60  52  74 CALM      30.09R
EAU CLAIRE     NOT AVBL
BLACK RVR FLS  FAIR      62  52  68 CALM      30.09R
MEDFORD        CLEAR     59  49  71 N5        30.11S
WAUSAU         CLEAR     63  46  54 N3        30.09R
WIS RAPIDS     CLEAR     59  50  72 CALM      30.10S
MARSHFIELD     CLEAR     63  47  55 CALM      30.10R
RICE LAKE      CLEAR     61  55  80 CALM      30.13S
$$

...NORTHEAST IOWA...


CITY           SKY/WX    TMP DP  RH WIND       PRES   REMARKS
DECORAH          N/A    N/A N/A N/A MISG        N/A
MASON CITY     LGT RAIN  61  54  77 E5        30.12S
CHARLES CITY   MOCLDY    63  54  72 CALM      30.12S
OELWEIN          N/A     59  54  82 NE5       30.11S
$$

...ELSEWHERE IN IOWA...


CITY           SKY/WX    TMP DP  RH WIND       PRES   REMARKS
DES MOINES     MOCLDY    67  50  54 NE7       30.08R
IOWA CITY      CLOUDY    66  54  65 NE7       30.08S
FORT DODGE     MOCLDY    63  50  63 NE5       30.11S
$$

...NORTHERN ILLINOIS...


CITY           SKY/WX    TMP DP  RH WIND       PRES   REMARKS
CHICAGO-OHARE  PTCLDY    58  45  62 NE9       30.08S
CHICAGO-MIDWAY MOCLDY    61  45  55 N13       30.08R
MOLINE         MOCLDY    68  54  60 CALM      30.06R
ROCKFORD       MOCLDY    64  50  60 NE8       30.09R
PEORIA         MOCLDY    66  59  78 CALM      30.05R HAZE
$$

NOTE: "FAIR" INDICATES FEW OR NO CLOUDS BELOW 12,000 FEET WITH NO
SIGNIFICANT WEATHER AND/OR OBSTRUCTIONS TO VISIBILITY. WIND
SPEEDS ARE IN MILES-PER-HOUR.



USA.gov is the U.S. government's official web portal to all federal, state and local government web resources and services.